Regional Weather Roundup
Issued by NWS

Home | Current Version | Previous Version | Text Only | Print | Product List | Glossary On
Versions: 1 2 3 4 5 6 7 8 9 10 11 12 13 14 15 16 17 18 19 20 21 22 23 24 25 26 27 28 29 30 31 32 33 34 35 36 37 38 39 40 41 42 43 44 45 46 47 48 49 50
176
ASUS44 KMEG 252210
RWRTN
TENNESSEE HOURLY STATE WEATHER ROUNDUP
NATIONAL WEATHER SERVICE MEMPHIS TN
500 PM CDT MON JUL 25 2016

TNZ002-004-019-021-049-052-054-088>092-252300-
WEST TENNESSEE

CITY           SKY/WX    TMP DP  RH WIND       PRES   REMARKS
MEMPHIS INTL   PTSUNNY   91  74  57 W6        29.94F THUNDER HX 100
NWS MEMPHIS      N/A     86 N/A N/A MISG        N/A
JACKSON        PTSUNNY   91  75  59 W15       29.95S HX 101
DYERSBURG      PTSUNNY  N/A N/A N/A MISG        N/A
UNION CITY     MOSUNNY   81  73  78 N7        29.97F
PARIS          MOSUNNY   79  72  78 NW14      29.99R
LEXINGTON      SUNNY     97  66  36 SW7       29.94F HX 100
$$

TNZ008-025-027-028-033-062-065-066-252300-
NORTH MIDDLE TENNESSEE

CITY           SKY/WX    TMP DP  RH WIND       PRES   REMARKS
NASHVILLE      PTSUNNY   89  69  51 W7        29.98S HX  93
CLARKSVILLE    SUNNY     91  75  59 NW6       29.95F HX 101
SMYRNA         CLOUDY    96  75  50 NE8       29.97F HX 107
COOKEVILLE     SUNNY     91  75  59 N3        30.00F HX 102
CROSSVILLE     CLOUDY    88  69  53 W7        30.06F HX  92
$$

TNZ061-075-076-078-094-096-097-252300-
SOUTH MIDDLE TENNESSEE

CITY           SKY/WX    TMP DP  RH WIND       PRES   REMARKS
FAYETTEVILLE   MOSUNNY   93  68  43 VRB5      29.98F HX  97
TULLAHOMA      SUNNY     90  66  45 W5        30.01F HX  92
WINCHESTER     SUNNY     90  72  55 CALM      30.00F HX  96
MCMINNVILLE    SUNNY     93  72  49 SW7       30.00F HX 100
COLUMBIA       SUNNY     99  64  32 SW14      29.95F HX 101
SHELBYVILLE    MOSUNNY   97  72  44 SW7       29.99F HX 105
$$

TNZ017-018-042-046-047-252300-
NORTHEAST TENNESSEE

CITY           SKY/WX    TMP DP  RH WIND       PRES   REMARKS
TRI CITIES     MOSUNNY   92  68  45 W10       30.00S HX  96
ELIZABETHTON   SUNNY     93  68  43 CALM      29.99S HX  97
$$

TNZ012-013-036-069-073-074-252300-
CENTRAL EAST TENNESSEE

CITY           SKY/WX    TMP DP  RH WIND       PRES   REMARKS
KNOXVILLE      CLOUDY    94  67  41 W8G17     29.97F HX  97
OAK RIDGE      SUNNY     96  68  39 VRB5      30.00S HX 101
GATLINBURG     SUNNY     88  72  58 SE3       29.99R HX  94
MORRISTOWN     SUNNY     88  72  58 N8        30.01R HX  94
$$

TNZ083-085-099-252300-
SOUTHEAST TENNESSEE

CITY           SKY/WX    TMP DP  RH WIND       PRES   REMARKS
CHATTANOOGA    PTSUNNY   84  68  58 N7        29.99F
$$

SKY/WX REPORTED AS FAIR MEANS FEW OR NO CLOUDS BELOW
12 THOUSAND FEET.





USA.gov is the U.S. government's official web portal to all federal, state and local government web resources and services.